Wind_Speed
22 23 23 23 23 23 23 23 23 23 22 23 23 22 22 22 22 22 22 23 23 23 23 23 23 23 23 22 23 23 22 21 21 21 21 20 20 20
24 24 23 24 23 24 24 25 25 24 23 23 23 23 23 24 24 23 23 23 24 24 24 24 24 24 24 23 23 23 23 23 22 22 22 22 22 22
25 24 24 25 26 26 25 26 26 25 24 23 24 25 24 25 25 24 24 24 24 25 25 25 25 25 24 24 25 24 24 24 23 23 22 23 24 24
25 25 26 27 28 27 27 27 26 26 26 25 25 25 25 25 26 26 26 25 26 25 24 24 24 25 25 25 25 25 25 24 24 24 24 24 25 25
27 27 28 29 29 28 28 28 27 27 26 26 25 26 27 27 27 27 26 26 26 26 24 24 24 25 25 25 26 26 26 25 25 25 25 26 26 26
30 30 31 31 30 30 30 29 28 27 27 26 26 26 27 28 27 27 26 26 26 25 25 26 26 26 26 27 26 27 27 27 26 26 26 26 27 27
31 31 32 32 31 31 30 29 28 27 27 27 27 27 27 27 26 26 26 25 26 27 26 27 27 27 27 27 27 27 28 28 27 27 27 27 27 27
32 33 32 32 31 30 29 28 28 27 28 28 28 27 26 27 27 27 27 27 28 28 28 28 28 28 28 29 29 29 29 29 29 29 28 28 28 27
34 33 32 31 30 30 30 29 29 29 29 29 28 28 28 28 29 29 30 30 29 30 30 29 29 29 29 30 30 30 30 30 30 30 30 29 29 28
33 33 32 32 31 31 31 30 30 30 30 30 30 29 29 30 30 30 30 31 30 30 30 30 30 30 30 30 30 30 30 30 30 30 30 30 30 30
34 33 33 32 31 31 31 31 31 31 31 31 30 30 30 30 31 31 31 31 31 31 31 31 31 31 30 31 31 30 30 29 30 30 30 30 30 30
34 34 33 31 31 32 31 31 31 31 31 31 31 31 31 31 31 31 31 31 31 31 31 31 31 31 30 30 30 30 29 29 30 30 30 30 30 29
33 32 32 31 31 31 31 31 31 31 31 31 31 31 31 30 30 31 31 32 32 32 32 32 31 31 30 29 30 30 30 30 30 30 30 29 29 29
32 31 31 31 31 31 30 30 30 30 30 30 31 30 30 30 30 31 31 31 31 31 31 30 30 30 30 30 30 30 30 30 29 29 29 29 29 29
31 30 31 30 30 30 30 30 30 30 30 30 30 30 30 30 30 30 30 31 31 30 30 30 29 29 29 29 29 28 28 28 28 28 29 29 29 29
30 30 30 29 29 30 30 31 31 31 30 30 30 30 30 30 30 30 30 30 30 30 30 30 29 29 29 28 27 27 28 28 28 28 29 29 28 28
30 30 30 29 29 30 30 30 30 30 30 29 29 30 30 29 29 29 29 29 29 29 29 29 29 28 27 27 26 26 27 27 28 28 28 28 28 28
30 30 30 31 30 30 30 30 29 29 29 29 29 29 29 28 28 28 28 28 28 28 28 27 27 27 27 27 27 27 28 27 27 28 28 27 27 26
30 30 30 31 31 30 29 28 28 29 29 28 28 28 28 28 27 27 28 27 27 26 26 26 26 26 27 27 27 27 27 27 27 27 27 26 26 25
30 30 30 30 30 30 29 28 28 28 28 28 28 28 28 28 27 27 27 27 26 26 26 26 26 27 26 26 26 26 26 26 26 25 25 25 25 24
30 30 30 30 30 29 29 29 29 28 28 27 27 27 27 27 27 27 27 26 26 26 26 26 26 26 26 27 26 25 25 24 24 24 23 23 24 23
30 30 30 30 29 29 29 28 28 27 27 27 27 27 27 26 26 26 26 25 25 25 25 25 25 25 26 26 26 25 24 24 24 23 22 22 22 22
30 30 30 29 29 29 29 28 27 27 27 28 27 27 27 26 26 26 25 25 25 26 26 25 25 25 25 25 24 23 23 22 22 21 21 21 20 20
Wind_Direction
302 301 300 302 300 301 302 302 302 300 298 297 295 292 289 288 289 288 287 285 284 283 282 282 282 281 279 279 279 279 278 276 273 272 272 269 268 269
302 301 299 300 301 301 301 301 301 298 296 296 293 292 290 290 288 286 285 284 283 283 282 282 281 280 278 278 278 278 277 277 274 271 271 270 269 270
301 300 298 298 299 299 300 299 298 297 295 294 293 291 291 289 288 285 283 283 283 282 281 281 279 279 278 278 277 277 277 276 274 271 270 270 270 270
299 299 298 298 297 297 297 298 297 296 295 294 293 291 292 291 289 289 285 283 281 281 281 281 281 279 277 277 276 275 276 275 274 272 271 271 270 271
298 298 299 298 298 297 297 296 295 294 294 294 293 291 291 290 289 289 287 284 280 280 280 279 280 279 277 277 276 276 275 274 274 274 272 272 272 271
297 297 298 298 298 296 296 295 294 294 293 294 294 293 293 291 288 288 286 285 282 283 280 277 277 277 276 275 275 275 274 273 273 273 273 271 271 271
296 296 296 295 295 296 294 293 293 293 293 293 293 294 293 291 290 287 287 285 284 284 282 278 278 277 275 275 274 273 273 273 273 272 272 271 271 271
296 295 294 292 293 293 293 291 290 291 292 293 293 292 292 290 289 289 288 285 283 283 282 281 278 278 277 276 275 274 273 273 272 271 271 271 271 272
295 295 293 292 291 291 291 291 290 290 290 291 291 291 290 288 288 288 288 287 285 284 282 281 279 278 277 277 276 275 274 273 271 271 271 272 271 271
293 293 292 291 291 290 290 291 291 291 290 290 290 289 288 287 287 287 286 284 283 283 282 282 281 278 277 276 275 275 275 273 271 271 271 272 271 271
292 291 290 290 290 290 289 290 290 290 290 289 289 288 287 285 285 285 284 283 283 282 282 282 281 280 277 276 275 276 275 273 271 271 272 272 272 271
292 291 290 290 289 289 289 289 289 289 289 289 287 287 287 286 285 284 284 283 283 282 283 283 281 279 278 277 276 275 275 275 273 272 272 271 270 269
293 291 290 290 290 290 291 290 289 288 288 289 289 288 287 286 287 287 285 283 283 283 283 282 281 280 278 275 275 275 274 273 273 273 272 270 270 270
294 291 291 291 290 290 290 291 290 288 287 287 288 289 289 289 289 288 286 285 286 284 283 283 282 280 278 276 276 276 273 272 271 271 271 270 269 269
296 294 292 292 291 290 290 290 290 289 288 288 288 288 289 289 288 288 286 286 285 284 283 283 283 282 280 278 277 274 273 271 271 272 271 270 270 268
297 294 294 293 292 291 290 290 289 289 289 289 288 288 289 288 288 288 287 286 285 283 282 283 282 281 280 278 276 274 273 272 272 273 272 271 270 269
297 296 294 293 293 291 290 290 289 289 289 290 290 290 288 287 287 287 286 285 285 284 284 283 281 278 277 276 274 274 274 272 272 273 273 272 272 270
298 298 296 294 293 292 291 290 290 290 290 289 289 290 290 288 288 288 288 288 286 285 284 283 280 277 276 276 275 274 273 272 271 272 273 272 271 270
299 299 298 297 296 295 293 292 292 291 291 290 290 291 291 290 288 287 288 288 286 286 286 284 282 279 277 275 275 274 272 271 271 272 271 270 270 269
298 298 298 297 296 295 293 292 292 292 292 291 291 291 292 291 290 288 288 288 288 288 286 286 284 281 280 277 275 275 273 274 273 272 271 270 269 268
298 298 297 297 296 295 294 293 291 291 291 291 292 292 292 291 289 289 288 287 288 289 288 288 286 282 279 276 275 275 274 273 273 272 271 270 267 266
297 298 298 297 296 295 294 294 293 292 291 292 291 291 290 290 289 288 288 288 288 289 290 289 287 283 280 278 275 273 273 271 270 269 269 270 267 264
299 298 299 298 296 296 295 292 293 293 292 293 293 292 291 291 290 289 289 290 290 291 290 289 286 284 281 278 277 275 273 270 268 267 268 268 267 262
Height
5857 5856 5854 5852 5850 5849 5848 5846 5844 5843 5842 5840 5838 5836 5835 5834 5833 5832 5832 5831 5830 5829 5828 5827 5827 5826 5826 5825 5825 5825 5825 5825 5825 5825 5825 5825 5826 5826
5852 5850 5849 5847 5845 5844 5842 5840 5838 5836 5836 5834 5832 5830 5829 5828 5827 5826 5825 5824 5823 5822 5821 5821 5820 5819 5819 5819 5818 5818 5818 5818 5818 5818 5818 5819 5819 5820
5846 5845 5843 5841 5839 5837 5835 5834 5831 5830 5828 5827 5826 5824 5822 5821 5820 5819 5818 5816 5816 5815 5815 5814 5813 5813 5812 5812 5811 5811 5811 5811 5811 5811 5811 5812 5812 5813
5841 5839 5837 5835 5833 5831 5829 5827 5825 5823 5822 5821 5819 5817 5815 5814 5812 5811 5810 5809 5808 5808 5807 5806 5806 5805 5805 5804 5804 5804 5803 5803 5804 5804 5804 5804 5804 5805
5834 5832 5830 5828 5826 5823 5821 5820 5818 5816 5814 5813 5812 5810 5808 5807 5805 5804 5803 5802 5800 5799 5799 5798 5798 5797 5797 5797 5796 5796 5796 5796 5796 5796 5796 5795 5796 5796
5827 5825 5823 5821 5818 5816 5814 5812 5810 5809 5807 5806 5805 5803 5801 5799 5798 5796 5796 5794 5793 5791 5791 5791 5790 5790 5789 5789 5788 5788 5788 5788 5788 5788 5787 5787 5787 5787
5819 5817 5815 5812 5810 5808 5806 5805 5803 5802 5800 5799 5797 5796 5794 5791 5790 5789 5788 5787 5785 5784 5783 5782 5782 5782 5781 5780 5780 5779 5779 5779 5779 5779 5778 5778 5778 5778
5811 5809 5807 5804 5802 5800 5798 5797 5795 5794 5792 5790 5789 5787 5785 5784 5782 5780 5779 5778 5777 5776 5775 5774 5773 5772 5771 5771 5770 5770 5770 5770 5770 5770 5769 5769 5769 5769
5802 5800 5798 5796 5794 5792 5790 5789 5787 5785 5784 5782 5780 5778 5777 5776 5774 5772 5770 5769 5768 5766 5765 5765 5763 5763 5762 5761 5761 5760 5760 5760 5760 5760 5760 5760 5760 5760
5794 5791 5789 5787 5785 5784 5782 5780 5778 5777 5775 5773 5772 5770 5768 5766 5764 5763 5761 5760 5758 5756 5755 5755 5754 5753 5752 5752 5751 5750 5750 5749 5749 5750 5750 5750 5750 5750
5785 5783 5780 5778 5777 5775 5773 5772 5770 5768 5766 5764 5762 5760 5758 5756 5755 5753 5752 5750 5749 5748 5745 5744 5744 5743 5743 5742 5741 5740 5740 5740 5740 5740 5740 5740 5740 5740
5776 5774 5771 5769 5768 5766 5764 5762 5761 5759 5757 5754 5753 5751 5749 5747 5745 5743 5742 5740 5739 5738 5736 5734 5733 5732 5732 5732 5731 5730 5730 5729 5729 5729 5730 5730 5730 5730
5766 5764 5762 5760 5758 5756 5755 5753 5751 5749 5747 5745 5743 5741 5739 5737 5735 5733 5731 5730 5728 5727 5726 5724 5723 5721 5721 5722 5721 5720 5720 5719 5719 5719 5719 5720 5720 5720
5757 5755 5753 5751 5749 5747 5745 5743 5741 5739 5737 5736 5734 5732 5730 5728 5726 5724 5722 5720 5718 5717 5715 5714 5713 5712 5711 5711 5711 5711 5710 5710 5710 5710 5710 5710 5710 5710
5748 5746 5744 5742 5740 5738 5736 5734 5732 5730 5728 5726 5724 5723 5721 5718 5716 5714 5712 5710 5709 5707 5706 5705 5703 5702 5701 5701 5701 5700 5700 5701 5700 5700 5700 5701 5701 5701
5740 5738 5735 5733 5731 5729 5727 5725 5723 5721 5719 5717 5715 5713 5711 5709 5707 5704 5703 5701 5699 5698 5696 5695 5694 5693 5692 5691 5691 5690 5690 5691 5691 5691 5691 5691 5691 5691
5731 5729 5726 5724 5722 5720 5718 5716 5714 5711 5709 5707 5705 5704 5702 5699 5697 5695 5694 5692 5690 5689 5688 5686 5684 5683 5682 5682 5682 5682 5681 5681 5681 5681 5681 5681 5682 5682
5723 5720 5718 5715 5713 5711 5709 5707 5704 5702 5700 5698 5696 5694 5692 5690 5688 5686 5684 5683 5681 5680 5678 5677 5675 5674 5674 5673 5673 5672 5672 5672 5671 5671 5671 5672 5672 5672
5714 5712 5709 5706 5704 5701 5700 5698 5695 5693 5691 5689 5687 5685 5683 5681 5680 5678 5676 5674 5672 5671 5669 5668 5666 5665 5665 5665 5664 5663 5663 5662 5662 5662 5662 5663 5663 5664
5706 5703 5700 5698 5695 5693 5690 5689 5687 5684 5682 5680 5678 5676 5674 5673 5671 5669 5668 5666 5664 5662 5661 5659 5658 5657 5656 5656 5655 5654 5654 5654 5653 5653 5653 5654 5655 5655
5697 5694 5692 5689 5686 5684 5682 5680 5678 5676 5674 5672 5669 5667 5666 5664 5662 5661 5659 5658 5656 5654 5652 5651 5649 5648 5647 5647 5646 5646 5646 5645 5645 5645 5645 5646 5646 5647
5688 5686 5683 5681 5678 5675 5673 5671 5669 5667 5665 5663 5661 5659 5657 5655 5654 5652 5651 5649 5648 5646 5644 5643 5641 5640 5639 5638 5638 5638 5638 5638 5637 5637 5637 5638 5638 5639
5680 5677 5674 5672 5669 5666 5664 5662 5660 5658 5656 5654 5652 5651 5649 5647 5646 5644 5643 5641 5639 5638 5636 5634 5633 5632 5631 5630 5629 5629 5629 5629 5630 5630 5631 5630 5631 5632